Location: Lane
(33.5226°N, 79.8788°W)
Time: 05:21:02
(UTC+00:00)

Vanguard 2 - Pass Details

Date: 07 October 2022
Orbit: 553 x 2933 km, 32.9° (Epoch: 26 November)

Event Time Altitude Azimuth Distance (km) Brightness Sun altitude
Rises 22:16:16 0° 284° (WNW) 5,734 13.3 7.3°
Reaches altitude 10° 22:19:43 10° 280° (W) 4,985 13.2 6.6°
Maximum altitude 22:34:39 56° 208° (SSW) 3,248 11.1 3.6°
Drops below altitude 10° 22:51:40 10° 136° (SE) 5,593 11.6 0.0°
Sets 22:55:51 0° 132° (SE) 6,445 11.8 -0.8°
